Location: Lourdes
(43.1000°N, 0.0500°W)
Time: 08:31:23
(UTC+00:00)

COSMOS 2251 DEB - Visible Passes

Search period start: 21 June 2021 00:00
Search period end: 01 July 2021 00:00
Orbit: 703 x 743 km, 74.0° (Epoch: 20 June)

Date Brightness Start Highest point End Pass type
(mag) Time Alt. Az. Time Alt. Az. Time Alt. Az.
21 Jun ? 00:07:43 28° WSW 00:09:27 36° WNW 00:13:59 10° N visible
21 Jun ? 21:38:31 11° E 21:38:34 11° E 21:39:44 10° E visible
21 Jun ? 23:17:49 55° SSW 23:18:52 82° WNW 23:23:48 10° NNE visible
22 Jun ? 00:59:05 10° WNW 01:00:47 12° NW 01:02:31 10° NNW visible
22 Jun ? 22:27:51 40° SE 22:28:33 42° ESE 22:33:10 10° NNE visible
23 Jun ? 00:07:09 16° W 00:09:49 24° WNW 00:13:46 10° N visible
23 Jun ? 21:37:51 18° ESE 21:38:27 18° E 21:41:46 10° NE visible
23 Jun ? 23:17:08 31° WSW 23:19:06 50° WNW 23:23:53 10° N visible
24 Jun ? 22:27:03 42° S 22:28:38 71° ESE 22:33:32 10° NNE visible
25 Jun ? 00:07:20 10° W 00:10:17 16° NW 00:13:15 10° NNW visible
25 Jun ? 21:36:55 25° SE 21:38:24 30° E 21:42:39 10° NE visible
25 Jun ? 23:16:11 16° WSW 23:19:25 32° WNW 23:23:49 10° N visible
26 Jun ? 20:46:41 11° ESE 20:48:23 13° E 20:50:31 10° ENE visible
26 Jun ? 22:25:57 25° SSW 22:28:48 71° WNW 22:33:43 10° NNE visible
27 Jun ? 00:10:16 10° NW 00:10:51 10° NW 00:11:26 10° NW visible
27 Jun ? 21:35:37 23° S 21:38:26 49° ESE 21:43:10 10° NNE visible
27 Jun ? 23:16:07 10° WSW 23:19:48 21° WNW 23:23:31 10° N visible
28 Jun ? 20:45:10 12° SE 20:48:17 21° E 20:51:57 10° NE visible
28 Jun ? 22:24:24 10° SW 22:29:03 44° WNW 22:33:45 10° N visible
29 Jun ? 21:33:46 11° SSW 21:38:32 82° ESE 21:43:28 10° NNE visible
29 Jun ? 23:17:46 10° W 23:20:18 14° NW 23:22:50 10° NNW visible
30 Jun ? 20:43:51 10° SSE 20:48:15 34° ESE 20:52:41 10° NE visible
30 Jun ? 22:25:10 10° WSW 22:29:22 28° WNW 22:33:37 10° N visible
